Location: Palmerston North
(40.3500°S, 175.6170°E)
Time: 14:48:33
(UTC+12:00)

ISS - Visible Passes

Search period start: 01 July 2022 00:00
Search period end: 11 July 2022 00:00
Orbit: 414 x 420 km, 51.6° (Epoch: 01 July)

Date Brightness Start Highest point End Pass type
(mag) Time Alt. Az. Time Alt. Az. Time Alt. Az.
01 Jul -1.2 18:57:55 10° SSW 18:58:46 14° SSW 18:58:46 14° SSW visible
02 Jul -1.8 18:09:52 10° SSW 18:12:03 16° SSE 18:12:40 15° SSE visible
03 Jul -1.9 18:57:58 10° SW 18:59:35 22° SSW 18:59:35 22° SSW visible
04 Jul -2.4 18:09:54 10° SSW 18:12:47 24° SSE 18:13:41 22° SE visible
04 Jul -0.4 19:46:24 10° WSW 19:46:37 11° WSW 19:46:37 11° WSW visible
05 Jul -3.3 18:58:06 10° SW 19:00:53 55° SW 19:00:53 55° SW visible
06 Jul -3.5 18:09:55 10° SW 18:13:15 50° SSE 18:15:21 20° ENE visible
06 Jul -0.6 19:47:19 10° W 19:48:20 15° W 19:48:20 15° W visible
07 Jul -2.0 18:58:34 10° WSW 19:01:39 32° NW 19:03:08 22° N visible
08 Jul -3.1 18:10:06 10° WSW 18:13:27 57° NW 18:16:47 10° NE visible
09 Jul -0.4 19:00:24 10° WNW 19:01:29 11° NW 19:02:33 10° NNW visible
10 Jul -0.8 18:10:50 10° W 18:13:22 20° NW 18:15:54 10° N visible
